Time,TemperatureF,DewpointF,PressureIn,WindDirection,WindDirectionDegrees,WindSpeedMPH,WindSpeedGustMPH,Humidity,HourlyPrecipIn,Conditions,Clouds,dailyrainin,SoftwareType,DateUTC
2013-08-06 00:01:00,67.0,59.0,29.97,ESE,104,0.0,-999.0,76,-99.99,,,-99.99,,2013-08-06 04:01:00,
2013-08-06 00:33:00,65.0,61.0,29.97,ESE,104,0.0,-999.0,88,-99.99,,,-99.99,,2013-08-06 04:33:00,
2013-08-06 00:44:00,64.0,61.0,29.97,ESE,103,0.0,-999.0,90,-99.99,,,-99.99,,2013-08-06 04:44:00,
2013-08-06 00:53:00,64.0,61.0,29.97,ESE,103,0.0,-999.0,90,-99.99,,,-99.99,,2013-08-06 04:53:00,
2013-08-06 01:02:00,64.0,61.0,29.97,ESE,103,0.0,-999.0,91,-99.99,,,-99.99,,2013-08-06 05:02:00,
2013-08-06 01:53:00,64.0,62.0,29.97,ESE,103,0.0,-999.0,93,-99.99,,,-99.99,,2013-08-06 05:53:00,
2013-08-06 02:02:00,64.0,62.0,29.97,ESE,103,0.0,-999.0,93,-99.99,,,-99.99,,2013-08-06 06:02:00,
2013-08-06 02:11:00,64.0,62.0,29.97,ESE,103,0.0,-999.0,94,-99.99,,,-99.99,,2013-08-06 06:11:00,
2013-08-06 02:32:00,64.0,62.0,29.97,ESE,102,0.0,-999.0,94,-99.99,,,-99.99,,2013-08-06 06:32:00,
2013-08-06 02:43:00,64.0,62.0,29.97,ESE,102,0.0,-999.0,94,-99.99,,,-99.99,,2013-08-06 06:43:00,
2013-08-06 03:01:00,64.0,62.0,29.96,ESE,102,0.0,-999.0,94,-99.99,,,-99.99,,2013-08-06 07:01:00,
2013-08-06 03:12:00,64.0,63.0,29.96,ESE,102,1.0,-999.0,95,-99.99,,,-99.99,,2013-08-06 07:12:00,
2013-08-06 03:22:00,63.0,62.0,29.96,ESE,102,1.0,-999.0,95,-99.99,,,-99.99,,2013-08-06 07:22:00,
2013-08-06 03:32:00,63.0,62.0,29.96,ESE,102,1.0,-999.0,95,-99.99,,,-99.99,,2013-08-06 07:32:00,
2013-08-06 03:43:00,63.0,62.0,29.97,ESE,102,0.0,-999.0,96,-99.99,,,-99.99,,2013-08-06 07:43:00,
2013-08-06 04:02:00,63.0,62.0,29.96,ESE,102,0.0,-999.0,96,-99.99,,,-99.99,,2013-08-06 08:02:00,
2013-08-06 04:11:00,63.0,62.0,29.96,ESE,102,0.0,-999.0,96,-99.99,,,-99.99,,2013-08-06 08:11:00,
2013-08-06 04:22:00,63.0,62.0,29.96,ESE,102,0.0,-999.0,96,-99.99,,,-99.99,,2013-08-06 08:22:00,
2013-08-06 04:33:00,63.0,62.0,29.96,ESE,102,0.0,-999.0,96,-99.99,,,-99.99,,2013-08-06 08:33:00,
2013-08-06 04:43:00,63.0,62.0,29.96,ESE,102,0.0,-999.0,97,-99.99,,,-99.99,,2013-08-06 08:43:00,
2013-08-06 05:01:00,63.0,62.0,29.95,East,100,0.0,-999.0,97,-99.99,,,-99.99,,2013-08-06 09:01:00,
2013-08-06 05:11:00,63.0,62.0,29.95,ESE,102,0.0,-999.0,97,-99.99,,,-99.99,,2013-08-06 09:11:00,
2013-08-06 05:32:00,63.0,62.0,29.93,ESE,102,0.0,-999.0,97,-99.99,,,-99.99,,2013-08-06 09:32:00,
2013-08-06 05:43:00,63.0,62.0,29.93,East,100,0.0,-999.0,97,-99.99,,,-99.99,,2013-08-06 09:43:00,
2013-08-06 05:52:00,63.0,62.0,29.93,East,100,0.0,-999.0,97,-99.99,,,-99.99,,2013-08-06 09:52:00,
2013-08-06 06:32:00,63.0,62.0,29.93,ESE,102,0.0,-999.0,97,-99.99,,,-99.99,,2013-08-06 10:32:00,
2013-08-06 06:43:00,63.0,62.0,29.93,ESE,102,0.0,-999.0,97,-99.99,,,-99.99,,2013-08-06 10:43:00,
2013-08-06 06:52:00,63.0,62.0,29.93,ESE,102,0.0,-999.0,97,-99.99,,,-99.99,,2013-08-06 10:52:00,
2013-08-06 07:32:00,63.0,62.0,29.94,ESE,102,0.0,-999.0,98,-99.99,,,-99.99,,2013-08-06 11:32:00,
2013-08-06 07:43:00,63.0,62.0,29.93,ESE,102,0.0,-999.0,98,-99.99,,,-99.99,,2013-08-06 11:43:00,
2013-08-06 07:53:00,63.0,62.0,29.93,ESE,103,0.0,-999.0,98,-99.99,,,-99.99,,2013-08-06 11:53:00,
2013-08-06 08:02:00,63.0,62.0,29.94,ESE,102,0.0,-999.0,98,-99.99,,,-99.99,,2013-08-06 12:02:00,
2013-08-06 08:11:00,63.0,62.0,29.94,ESE,102,0.0,-999.0,98,-99.99,,,-99.99,,2013-08-06 12:11:00,
2013-08-06 08:43:00,64.0,63.0,29.96,ESE,104,0.0,-999.0,98,-99.99,,,-99.99,,2013-08-06 12:43:00,
2013-08-06 08:52:00,64.0,63.0,29.96,ESE,112,0.0,-999.0,98,-99.99,,,-99.99,,2013-08-06 12:52:00,
2013-08-06 09:02:00,64.0,63.0,29.95,ESE,112,0.0,-999.0,98,-99.99,,,-99.99,,2013-08-06 13:02:00,
2013-08-06 09:11:00,64.0,63.0,29.95,ESE,112,0.0,-999.0,98,-99.99,,,-99.99,,2013-08-06 13:11:00,
2013-08-06 10:01:00,66.0,65.0,29.95,SSE,165,0.0,-999.0,97,-99.99,,,-99.99,,2013-08-06 14:01:00,
2013-08-06 10:11:00,66.0,65.0,29.95,SSE,165,0.0,-999.0,97,-99.99,,,-99.99,,2013-08-06 14:11:00,
2013-08-06 10:22:00,66.0,65.0,29.95,SSE,165,0.0,-999.0,98,-99.99,,,-99.99,,2013-08-06 14:22:00,
2013-08-06 10:53:00,68.0,67.0,29.95,SSE,164,0.0,-999.0,97,-99.99,,,-99.99,,2013-08-06 14:53:00,
2013-08-06 11:02:00,68.0,67.0,29.95,SSE,164,0.0,-999.0,96,-99.99,,,-99.99,,2013-08-06 15:02:00,
2013-08-06 11:33:00,69.0,67.0,29.94,SSE,164,1.0,-999.0,93,-99.99,,,-99.99,,2013-08-06 15:33:00,
2013-08-06 11:44:00,69.0,67.0,29.94,SSE,164,1.0,-999.0,93,-99.99,,,-99.99,,2013-08-06 15:44:00,
2013-08-06 11:52:00,69.0,67.0,29.95,SSE,164,1.0,-999.0,92,-99.99,,,-99.99,,2013-08-06 15:52:00,
2013-08-06 12:02:00,70.0,67.0,29.95,South,182,1.0,-999.0,91,-99.99,,,-99.99,,2013-08-06 16:02:00,
2013-08-06 12:11:00,70.0,67.0,29.95,South,182,1.0,-999.0,91,-99.99,,,-99.99,,2013-08-06 16:11:00,
2013-08-06 12:22:00,70.0,67.0,29.96,South,182,1.0,-999.0,90,-99.99,,,-99.99,,2013-08-06 16:22:00,
2013-08-06 12:43:00,71.0,68.0,29.96,South,184,0.0,-999.0,89,-99.99,,,-99.99,,2013-08-06 16:43:00,
2013-08-06 12:52:00,71.0,67.0,29.96,South,184,0.0,-999.0,88,-99.99,,,-99.99,,2013-08-06 16:52:00,
2013-08-06 13:02:00,72.0,68.0,29.96,South,182,1.0,-999.0,88,-99.99,,,-99.99,,2013-08-06 17:02:00,
2013-08-06 13:11:00,72.0,68.0,29.96,South,182,1.0,-999.0,88,-99.99,,,-99.99,,2013-08-06 17:11:00,
2013-08-06 13:44:00,72.0,68.0,29.96,South,185,1.0,-999.0,87,-99.99,,,-99.99,,2013-08-06 17:44:00,
2013-08-06 13:52:00,72.0,68.0,29.96,South,185,1.0,-999.0,86,-99.99,,,-99.99,,2013-08-06 17:52:00,
2013-08-06 14:11:00,72.0,67.0,29.96,South,185,1.0,-999.0,85,-99.99,,,-99.99,,2013-08-06 18:11:00,
2013-08-06 14:32:00,73.0,68.0,29.96,South,178,1.0,-999.0,83,-99.99,,,-99.99,,2013-08-06 18:32:00,
2013-08-06 14:52:00,73.0,68.0,29.94,SSW,193,1.0,-999.0,83,-99.99,,,-99.99,,2013-08-06 18:52:00,
2013-08-06 15:01:00,74.0,68.0,29.94,SSW,193,0.0,-999.0,82,-99.99,,,-99.99,,2013-08-06 19:01:00,
2013-08-06 15:32:00,75.0,68.0,29.94,South,191,1.0,-999.0,80,-99.99,,,-99.99,,2013-08-06 19:32:00,
2013-08-06 15:42:00,75.0,68.0,29.94,South,189,0.0,-999.0,79,-99.99,,,-99.99,,2013-08-06 19:42:00,
2013-08-06 15:52:00,75.0,68.0,29.93,South,178,1.0,-999.0,78,-99.99,,,-99.99,,2013-08-06 19:52:00,
2013-08-06 16:01:00,76.0,68.0,29.93,South,179,1.0,-999.0,77,-99.99,,,-99.99,,2013-08-06 20:01:00,
2013-08-06 16:22:00,76.0,68.0,29.92,South,169,1.0,-999.0,77,-99.99,,,-99.99,,2013-08-06 20:22:00,
2013-08-06 16:32:00,76.0,67.0,29.92,South,185,1.0,-999.0,75,-99.99,,,-99.99,,2013-08-06 20:32:00,
2013-08-06 16:44:00,77.0,68.0,29.92,SSW,202,1.0,-999.0,75,-99.99,,,-99.99,,2013-08-06 20:44:00,
2013-08-06 17:11:00,77.0,68.0,29.91,SSW,202,0.0,-999.0,75,-99.99,,,-99.99,,2013-08-06 21:11:00,
2013-08-06 17:43:00,78.0,69.0,29.92,SSW,202,0.0,-999.0,74,-99.99,,,-99.99,,2013-08-06 21:43:00,
2013-08-06 18:01:00,78.0,69.0,29.91,South,171,0.0,-999.0,73,-99.99,,,-99.99,,2013-08-06 22:01:00,
2013-08-06 18:11:00,78.0,69.0,29.91,South,172,0.0,-999.0,73,-99.99,,,-99.99,,2013-08-06 22:11:00,
2013-08-06 18:32:00,78.0,69.0,29.91,South,181,0.0,-999.0,74,-99.99,,,-99.99,,2013-08-06 22:32:00,
2013-08-06 18:43:00,78.0,69.0,29.91,South,179,1.0,-999.0,73,-99.99,,,-99.99,,2013-08-06 22:43:00,
2013-08-06 19:01:00,78.0,70.0,29.91,South,171,0.0,-999.0,76,-99.99,,,-99.99,,2013-08-06 23:01:00,
2013-08-06 19:11:00,78.0,69.0,29.91,South,186,2.0,-999.0,74,-99.99,,,-99.99,,2013-08-06 23:11:00,
2013-08-06 19:52:00,77.0,69.0,29.92,South,188,0.0,-999.0,76,-99.99,,,-99.99,,2013-08-06 23:52:00,
2013-08-06 20:01:00,77.0,69.0,29.92,South,188,0.0,-999.0,76,-99.99,,,-99.99,,2013-08-07 00:01:00,
2013-08-06 20:11:00,77.0,69.0,29.92,South,188,1.0,-999.0,76,-99.99,,,-99.99,,2013-08-07 00:11:00,
2013-08-06 20:32:00,76.0,68.0,29.92,South,182,0.0,-999.0,76,-99.99,,,-99.99,,2013-08-07 00:32:00,
2013-08-06 20:43:00,76.0,68.0,29.92,South,182,0.0,-999.0,77,-99.99,,,-99.99,,2013-08-07 00:43:00,
2013-08-06 21:01:00,75.0,68.0,29.92,South,182,0.0,-999.0,79,-99.99,,,-99.99,,2013-08-07 01:01:00,
2013-08-06 21:11:00,75.0,68.0,29.92,South,182,0.0,-999.0,79,-99.99,,,-99.99,,2013-08-07 01:11:00,
2013-08-06 21:43:00,74.0,68.0,29.92,South,182,0.0,-999.0,81,-99.99,,,-99.99,,2013-08-07 01:43:00,
2013-08-06 21:52:00,74.0,68.0,29.92,South,182,0.0,-999.0,81,-99.99,,,-99.99,,2013-08-07 01:52:00,
2013-08-06 22:02:00,74.0,68.0,29.92,South,182,0.0,-999.0,82,-99.99,,,-99.99,,2013-08-07 02:02:00,
2013-08-06 23:01:00,72.0,67.0,29.92,South,182,0.0,-999.0,85,-99.99,,,-99.99,,2013-08-07 03:01:00,
2013-08-06 23:43:00,72.0,68.0,29.93,South,182,0.0,-999.0,88,-99.99,,,-99.99,,2013-08-07 03:43:00,
2013-08-06 23:52:00,72.0,68.0,29.93,South,182,0.0,-999.0,88,-99.99,,,-99.99,,2013-08-07 03:52:00,